Terminal Aerodrome Forecast
Issued by NWS

Home | Current Version | Previous Version | Text Only | Print | Product List | Glossary On
Versions: 1 2 3 4 5 6 7 8 9 10 11 12 13 14 15 16 17 18
000
FTUS45 KRIW 211900 AAA
TAFJAC
TAF AMD
KJAC 211930Z 2120/2218 21018G22KT 3SM -SN BLSN SCT009 OVC025
      WS005/25042KT
     FM220100 24015G23KT 2SM -SHSN BKN018
     FM220700 19009KT 5SM -SHSN SCT018 BKN030
      AMD LTD TO CLD VIS AND WIND=

USA.gov is the U.S. government's official web portal to all federal, state and local government web resources and services.